GIA284 WIII-WAHS

Flight info

Callsign GIA284
Flight time 0h 45m
Altitude 25000
Route CA
Aircraft B738/M-SDE2E3FGHIRWXY/LB1

Departure

Time 2026-05-08 10:10
Airport Soekarno-Hatta International Airport (WIII)

Arrival

Time 2026-05-08 10:56
Airport Jenderal Ahmad Yani Airport (WAHS)
Time Latitude Longitude Altitude Speed Heading
2026-05-08 09:42 -6.12246 106.64911 37 ft 0 kts 144°
2026-05-08 09:52 -6.12240 106.64907 38 ft 2 kts 143°
2026-05-08 09:52 -6.12226 106.64897 35 ft 2 kts 147°
2026-05-08 09:52 -6.12212 106.64889 35 ft 2 kts 150°
2026-05-08 09:53 -6.12198 106.64881 34 ft 2 kts 158°
2026-05-08 09:53 -6.12182 106.64877 34 ft 2 kts 192°
2026-05-08 09:53 -6.12170 106.64885 37 ft 1 kts 244°
2026-05-08 09:53 -6.12168 106.64888 37 ft 0 kts 247°
2026-05-08 09:55 -6.12174 106.64874 36 ft 7 kts 248°
2026-05-08 09:55 -6.12204 106.64794 36 ft 16 kts 255°
2026-05-08 09:56 -6.12139 106.64723 37 ft 15 kts 343°
2026-05-08 09:56 -6.12040 106.64685 35 ft 15 kts 337°
2026-05-08 09:56 -6.12009 106.64603 38 ft 14 kts 249°
2026-05-08 09:56 -6.12048 106.64503 37 ft 19 kts 248°
2026-05-08 09:57 -6.12173 106.64192 38 ft 25 kts 248°
2026-05-08 09:57 -6.12234 106.64037 36 ft 23 kts 248°
2026-05-08 09:57 -6.12232 106.63906 39 ft 14 kts 319°
2026-05-08 09:58 -6.12219 106.63898 40 ft 0 kts 332°
2026-05-08 09:59 -6.12215 106.63896 40 ft 0 kts 334°
2026-05-08 09:59 -6.12214 106.63881 40 ft 4 kts 245°
2026-05-08 10:00 -6.12252 106.63902 39 ft 12 kts 125°
2026-05-08 10:00 -6.12330 106.63948 38 ft 14 kts 160°
2026-05-08 10:00 -6.12417 106.63975 38 ft 8 kts 158°
2026-05-08 10:00 -6.12420 106.63976 38 ft 0 kts 158°
2026-05-08 10:07 -6.12424 106.63983 36 ft 3 kts 116°
2026-05-08 10:07 -6.12405 106.63991 36 ft 5 kts 335°
2026-05-08 10:07 -6.12356 106.63964 38 ft 12 kts 331°
2026-05-08 10:08 -6.12273 106.63922 36 ft 13 kts 335°
2026-05-08 10:08 -6.12191 106.63890 40 ft 12 kts 353°
2026-05-08 10:08 -6.12114 106.63923 40 ft 12 kts 33°
2026-05-08 10:08 -6.12060 106.63985 39 ft 12 kts 67°
2026-05-08 10:09 -6.12056 106.63995 39 ft 0 kts 68°
2026-05-08 10:09 -6.11989 106.64165 40 ft 63 kts 68°
2026-05-08 10:09 -6.11736 106.64800 40 ft 130 kts 68°
2026-05-08 10:10 -6.11332 106.65819 148 ft 175 kts 69°
2026-05-08 10:10 -6.10921 106.66936 1023 ft 168 kts 68°
2026-05-08 10:10 -6.10293 106.67936 1643 ft 178 kts 43°
2026-05-08 10:10 -6.09336 106.68885 1909 ft 207 kts 45°
2026-05-08 10:11 -6.08461 106.70119 2101 ft 231 kts 72°
2026-05-08 10:11 -6.08519 106.71748 2592 ft 241 kts 105°
2026-05-08 10:11 -6.09066 106.73393 2978 ft 257 kts 109°
2026-05-08 10:11 -6.09675 106.75128 3561 ft 266 kts 110°
2026-05-08 10:12 -6.10287 106.76872 4495 ft 265 kts 110°
2026-05-08 10:12 -6.10899 106.78631 5242 ft 270 kts 110°
2026-05-08 10:12 -6.11513 106.80415 6115 ft 270 kts 110°
2026-05-08 10:12 -6.12129 106.82218 6807 ft 274 kts 109°
2026-05-08 10:13 -6.12747 106.84037 7579 ft 277 kts 109°
2026-05-08 10:13 -6.13370 106.85884 8291 ft 281 kts 109°
2026-05-08 10:13 -6.13999 106.87753 9072 ft 283 kts 110°
2026-05-08 10:13 -6.14634 106.89646 9760 ft 288 kts 110°
2026-05-08 10:14 -6.15274 106.91558 10416 ft 293 kts 109°
2026-05-08 10:14 -6.15937 106.93538 10679 ft 312 kts 109°
2026-05-08 10:14 -6.16648 106.95665 10989 ft 328 kts 109°
2026-05-08 10:14 -6.17379 106.97852 11533 ft 334 kts 109°
2026-05-08 10:15 -6.18121 107.00080 12194 ft 336 kts 109°
2026-05-08 10:15 -6.18867 107.02316 12878 ft 340 kts 109°
2026-05-08 10:15 -6.19623 107.04587 13506 ft 344 kts 109°
2026-05-08 10:15 -6.20385 107.06877 14128 ft 347 kts 109°
2026-05-08 10:16 -6.21156 107.09191 14712 ft 351 kts 109°
2026-05-08 10:16 -6.21935 107.11529 15335 ft 354 kts 109°
2026-05-08 10:16 -6.22720 107.13888 15952 ft 358 kts 109°
2026-05-08 10:16 -6.23515 107.16274 16510 ft 362 kts 109°
2026-05-08 10:17 -6.24317 107.18685 17118 ft 365 kts 109°
2026-05-08 10:17 -6.25127 107.21118 17699 ft 369 kts 109°
2026-05-08 10:17 -6.25947 107.23579 18229 ft 373 kts 109°
2026-05-08 10:17 -6.26774 107.26061 18731 ft 376 kts 109°
2026-05-08 10:18 -6.27605 107.28559 19237 ft 378 kts 109°
2026-05-08 10:18 -6.28442 107.31074 19724 ft 381 kts 109°
2026-05-08 10:18 -6.29288 107.33614 20181 ft 385 kts 109°
2026-05-08 10:18 -6.30138 107.36172 20652 ft 388 kts 109°
2026-05-08 10:19 -6.30996 107.38752 21120 ft 391 kts 108°
2026-05-08 10:19 -6.31862 107.41358 21575 ft 394 kts 108°
2026-05-08 10:19 -6.32735 107.43988 22017 ft 398 kts 108°
2026-05-08 10:20 -6.34489 107.49269 22837 ft 405 kts 108°
2026-05-08 10:20 -6.35383 107.51960 23313 ft 407 kts 108°
2026-05-08 10:20 -6.36281 107.54665 23650 ft 411 kts 108°
2026-05-08 10:20 -6.37188 107.57397 24024 ft 412 kts 108°
2026-05-08 10:21 -6.38094 107.60126 24470 ft 412 kts 108°
2026-05-08 10:21 -6.39003 107.62866 24771 ft 414 kts 108°
2026-05-08 10:21 -6.39913 107.65606 24802 ft 413 kts 108°
2026-05-08 10:21 -6.40816 107.68330 24830 ft 409 kts 108°
2026-05-08 10:22 -6.41718 107.71048 24843 ft 412 kts 108°
2026-05-08 10:22 -6.42626 107.73787 24853 ft 416 kts 108°
2026-05-08 10:22 -6.43545 107.76561 24843 ft 418 kts 108°
2026-05-08 10:22 -6.44462 107.79327 24836 ft 416 kts 108°
2026-05-08 10:23 -6.45377 107.82088 24836 ft 416 kts 108°
2026-05-08 10:23 -6.46289 107.84840 24837 ft 415 kts 108°
2026-05-08 10:23 -6.47200 107.87591 24840 ft 415 kts 108°
2026-05-08 10:23 -6.48113 107.90346 24835 ft 415 kts 108°
2026-05-08 10:24 -6.49024 107.93098 24836 ft 415 kts 108°
2026-05-08 10:24 -6.49934 107.95848 24835 ft 415 kts 108°
2026-05-08 10:24 -6.50846 107.98602 24837 ft 415 kts 108°
2026-05-08 10:24 -6.51750 108.01334 24835 ft 415 kts 108°
2026-05-08 10:25 -6.52663 108.04094 24835 ft 416 kts 108°
2026-05-08 10:25 -6.53575 108.06851 24833 ft 416 kts 108°
2026-05-08 10:25 -6.54488 108.09610 24834 ft 416 kts 108°
2026-05-08 10:25 -6.55401 108.12373 24834 ft 416 kts 108°
2026-05-08 10:26 -6.56315 108.15136 24829 ft 416 kts 108°
2026-05-08 10:26 -6.57216 108.17861 24830 ft 417 kts 108°
2026-05-08 10:26 -6.58129 108.20625 24833 ft 417 kts 108°
2026-05-08 10:26 -6.59042 108.23389 24833 ft 417 kts 108°
2026-05-08 10:27 -6.59950 108.26138 24832 ft 417 kts 108°
2026-05-08 10:27 -6.60864 108.28905 24834 ft 417 kts 108°
2026-05-08 10:27 -6.61779 108.31676 24830 ft 417 kts 108°
2026-05-08 10:27 -6.62693 108.34446 24833 ft 417 kts 108°
2026-05-08 10:28 -6.63607 108.37216 24833 ft 417 kts 108°
2026-05-08 10:28 -6.64520 108.39983 24832 ft 417 kts 108°
2026-05-08 10:28 -6.65433 108.42750 24835 ft 417 kts 108°
2026-05-08 10:28 -6.66347 108.45522 24832 ft 417 kts 108°
2026-05-08 10:29 -6.67259 108.48288 24832 ft 417 kts 108°
2026-05-08 10:29 -6.68170 108.51052 24833 ft 417 kts 108°
2026-05-08 10:29 -6.69084 108.53824 24834 ft 417 kts 108°
2026-05-08 10:29 -6.69962 108.56604 24826 ft 417 kts 104°
2026-05-08 10:30 -6.70544 108.59455 24835 ft 416 kts 99°
2026-05-08 10:30 -6.70990 108.62339 24832 ft 417 kts 98°
2026-05-08 10:30 -6.71398 108.65224 24826 ft 417 kts 98°
2026-05-08 10:30 -6.71808 108.68112 24831 ft 417 kts 98°
2026-05-08 10:31 -6.72234 108.70995 24825 ft 417 kts 98°
2026-05-08 10:31 -6.72676 108.73876 24825 ft 417 kts 98°
2026-05-08 10:31 -6.73129 108.76761 24825 ft 417 kts 99°
2026-05-08 10:31 -6.73587 108.79638 24821 ft 417 kts 99°
2026-05-08 10:32 -6.74048 108.82516 24821 ft 417 kts 99°
2026-05-08 10:32 -6.74509 108.85395 24822 ft 417 kts 99°
2026-05-08 10:32 -6.74970 108.88273 24820 ft 417 kts 99°
2026-05-08 10:32 -6.75431 108.91150 24822 ft 417 kts 99°
2026-05-08 10:33 -6.75891 108.94026 24822 ft 417 kts 99°
2026-05-08 10:33 -6.76350 108.96903 24822 ft 417 kts 99°
2026-05-08 10:33 -6.76810 108.99779 24821 ft 417 kts 99°
2026-05-08 10:33 -6.77268 109.02651 24815 ft 412 kts 99°
2026-05-08 10:34 -6.77716 109.05462 24809 ft 403 kts 99°
2026-05-08 10:34 -6.78159 109.08236 24815 ft 400 kts 99°
2026-05-08 10:34 -6.78597 109.10988 24813 ft 397 kts 99°
2026-05-08 10:34 -6.79033 109.13724 24680 ft 397 kts 98°
2026-05-08 10:35 -6.79445 109.16461 24355 ft 393 kts 98°
2026-05-08 10:35 -6.79830 109.19177 23958 ft 391 kts 98°
2026-05-08 10:35 -6.80079 109.20966 23681 ft 390 kts 97°
2026-05-08 10:35 -6.80453 109.23664 23211 ft 389 kts 97°
2026-05-08 10:36 -6.80826 109.26351 22731 ft 387 kts 98°
2026-05-08 10:36 -6.81198 109.29019 22281 ft 384 kts 98°
2026-05-08 10:36 -6.81569 109.31666 21844 ft 381 kts 98°
2026-05-08 10:36 -6.81939 109.34297 21418 ft 378 kts 98°
2026-05-08 10:37 -6.82307 109.36910 20993 ft 376 kts 98°
2026-05-08 10:37 -6.82790 109.40341 20435 ft 372 kts 99°
2026-05-08 10:37 -6.83035 109.42079 20150 ft 371 kts 99°
2026-05-08 10:37 -6.83397 109.44645 19736 ft 369 kts 99°
2026-05-08 10:38 -6.83756 109.47197 19314 ft 368 kts 99°
2026-05-08 10:38 -6.84114 109.49737 18888 ft 367 kts 99°
2026-05-08 10:38 -6.84471 109.52275 18470 ft 365 kts 99°
2026-05-08 10:38 -6.84826 109.54803 18038 ft 364 kts 99°
2026-05-08 10:39 -6.85180 109.57320 17581 ft 362 kts 99°
2026-05-08 10:39 -6.85527 109.59791 17162 ft 360 kts 99°
2026-05-08 10:39 -6.85876 109.62271 16746 ft 357 kts 99°
2026-05-08 10:39 -6.86222 109.64736 16340 ft 354 kts 99°
2026-05-08 10:40 -6.86565 109.67184 15936 ft 352 kts 99°
2026-05-08 10:40 -6.86906 109.69612 15539 ft 349 kts 99°
2026-05-08 10:40 -6.87244 109.72024 15145 ft 347 kts 99°
2026-05-08 10:40 -6.87580 109.74417 14758 ft 345 kts 99°
2026-05-08 10:41 -6.87914 109.76805 14355 ft 343 kts 98°
2026-05-08 10:41 -6.88242 109.79144 13953 ft 333 kts 98°
2026-05-08 10:41 -6.88561 109.81425 13574 ft 327 kts 98°
2026-05-08 10:41 -6.88879 109.83691 13154 ft 326 kts 98°
2026-05-08 10:42 -6.89194 109.85945 12759 ft 325 kts 98°
2026-05-08 10:42 -6.89520 109.88184 12379 ft 323 kts 101°
2026-05-08 10:42 -6.90047 109.90112 12138 ft 318 kts 109°
2026-05-08 10:42 -6.90823 109.92183 11783 ft 316 kts 111°
2026-05-08 10:43 -6.91648 109.94226 11423 ft 314 kts 112°
2026-05-08 10:43 -6.92469 109.96255 11062 ft 313 kts 111°
2026-05-08 10:43 -6.93277 109.98279 10703 ft 311 kts 111°
2026-05-08 10:43 -6.94068 110.00295 10469 ft 305 kts 110°
2026-05-08 10:44 -6.94831 110.02259 10319 ft 298 kts 110°
2026-05-08 10:44 -6.95569 110.04174 10188 ft 289 kts 110°
2026-05-08 10:44 -6.96284 110.06038 10059 ft 281 kts 110°
2026-05-08 10:44 -6.96982 110.07864 9808 ft 279 kts 110°
2026-05-08 10:45 -6.97677 110.09683 9507 ft 278 kts 110°
2026-05-08 10:45 -6.98366 110.11491 9207 ft 276 kts 110°
2026-05-08 10:45 -6.99053 110.13292 8917 ft 275 kts 110°
2026-05-08 10:45 -6.99735 110.15082 8626 ft 273 kts 110°
2026-05-08 10:46 -7.00413 110.16863 8337 ft 272 kts 110°
2026-05-08 10:46 -7.01089 110.18637 8054 ft 271 kts 110°
2026-05-08 10:46 -7.01762 110.20405 7764 ft 270 kts 110°
2026-05-08 10:46 -7.02432 110.22165 7482 ft 269 kts 110°
2026-05-08 10:47 -7.03101 110.23920 7194 ft 268 kts 111°
2026-05-08 10:47 -7.03767 110.25668 6916 ft 267 kts 111°
2026-05-08 10:47 -7.04405 110.27421 6628 ft 266 kts 104°
2026-05-08 10:47 -7.04501 110.29270 6356 ft 265 kts 85°
2026-05-08 10:48 -7.04298 110.31109 6116 ft 263 kts 84°
2026-05-08 10:48 -7.04082 110.32934 5833 ft 262 kts 84°
2026-05-08 10:48 -7.03870 110.34751 5561 ft 261 kts 84°
2026-05-08 10:48 -7.03658 110.36573 5184 ft 260 kts 84°
2026-05-08 10:49 -7.03458 110.38341 4941 ft 258 kts 84°
2026-05-08 10:49 -7.03260 110.40128 4691 ft 256 kts 84°
2026-05-08 10:49 -7.03064 110.41905 4419 ft 255 kts 84°
2026-05-08 10:49 -7.02868 110.43674 4163 ft 253 kts 84°
2026-05-08 10:50 -7.02677 110.45406 4022 ft 245 kts 85°
2026-05-08 10:50 -7.02493 110.47065 3896 ft 232 kts 84°
2026-05-08 10:50 -7.02325 110.48646 3771 ft 224 kts 88°
2026-05-08 10:50 -7.02651 110.50130 3661 ft 216 kts 120°
2026-05-08 10:51 -7.03678 110.51191 3558 ft 213 kts 149°
2026-05-08 10:51 -7.05086 110.51603 3369 ft 213 kts 179°
2026-05-08 10:51 -7.06521 110.51297 3161 ft 213 kts 205°
2026-05-08 10:51 -7.07582 110.50267 2806 ft 220 kts 249°
2026-05-08 10:52 -7.07607 110.48792 2626 ft 212 kts 295°
2026-05-08 10:52 -7.06616 110.47788 2430 ft 203 kts 339°
2026-05-08 10:52 -7.05402 110.47147 2241 ft 194 kts 315°
2026-05-08 10:52 -7.04635 110.46147 2066 ft 181 kts 310°
2026-05-08 10:53 -7.03778 110.45271 1832 ft 171 kts 318°
2026-05-08 10:53 -7.03011 110.44395 1637 ft 165 kts 311°
2026-05-08 10:53 -7.02289 110.43515 1409 ft 158 kts 311°
2026-05-08 10:53 -7.01587 110.42679 1205 ft 154 kts 311°
2026-05-08 10:54 -7.00908 110.41864 1006 ft 150 kts 311°
2026-05-08 10:54 -7.00252 110.41048 817 ft 150 kts 312°
2026-05-08 10:54 -6.99549 110.40258 637 ft 154 kts 311°
2026-05-08 10:54 -6.98850 110.39438 414 ft 154 kts 310°
2026-05-08 10:55 -6.98149 110.38610 211 ft 157 kts 310°
2026-05-08 10:55 -6.97439 110.37769 28 ft 157 kts 310°
2026-05-08 10:55 -6.96812 110.37029 6 ft 112 kts 310°
2026-05-08 10:55 -6.96442 110.36592 3 ft 63 kts 310°
2026-05-08 10:56 -6.96315 110.36440 4 ft 0 kts 304°
2026-05-08 10:56 -6.96312 110.36435 4 ft 3 kts 304°
2026-05-08 10:56 -6.96287 110.36379 3 ft 13 kts 285°
2026-05-08 10:56 -6.96255 110.36373 3 ft 4 kts 70°
2026-05-08 10:57 -6.96290 110.36415 5 ft 13 kts 136°
2026-05-08 10:57 -6.96374 110.36511 4 ft 23 kts 130°
2026-05-08 10:57 -6.96621 110.36803 5 ft 27 kts 130°
2026-05-08 10:58 -6.96738 110.36941 5 ft 25 kts 130°
2026-05-08 10:58 -6.96847 110.37069 5 ft 23 kts 130°
2026-05-08 10:58 -6.96950 110.37190 4 ft 22 kts 130°
2026-05-08 10:58 -6.97049 110.37309 4 ft 22 kts 130°
2026-05-08 10:59 -6.97090 110.37421 5 ft 15 kts 58°
2026-05-08 10:59 -6.97014 110.37488 15 ft 15 kts 39°
2026-05-08 10:59 -6.96931 110.37557 17 ft 16 kts 31°
2026-05-08 10:59 -6.96864 110.37517 18 ft 12 kts 305°
2026-05-08 11:00 -6.96813 110.37454 18 ft 11 kts 322°
2026-05-08 11:00 -6.96763 110.37468 18 ft 5 kts 38°
2026-05-08 11:00 -6.96746 110.37482 18 ft 0 kts 39°